| time (UTC) | temp F | wind direction | speed knots | gust knots | rain 1hr in | rain 24hr in | rain mn in | humidity % | barometer mb |
| 20260504223559 | 66 | 0 | 1.7 | 6.1 | 0.00 | 0.00 | 0.00 | 41 | 1007.2 |
| 20260504223104 | 66 | 328 | 0.9 | 6.1 | 0.00 | 0.00 | 0.00 | 40 | 1007.2 |
| 20260504222559 | 67 | 336 | 0.9 | 6.1 | 0.00 | 0.00 | 0.00 | 40 | 1007.1 |
| 20260504222059 | 67 | 279 | 0.9 | 4.3 | 0.00 | 0.00 | 0.00 | 39 | 1007.1 |
| 20260504221608 | 67 | 291 | 0.9 | 4.3 | 0.00 | 0.00 | 0.00 | 38 | 1007.1 |
| 20260504221059 | 68 | 0 | 0.0 | 2.6 | 0.00 | 0.00 | 0.00 | 38 | 1007.0 |
| 20260504220600 | 68 | 0 | 0.0 | 2.6 | 0.00 | 0.00 | 0.00 | 37 | 1007.1 |
| 20260504220135 | 69 | 0 | 0.0 | 4.3 | 0.00 | 0.00 | 0.00 | 36 | 1007.0 |
| 20260504215600 | 69 | 279 | 0.0 | 4.3 | 0.00 | 0.00 | 0.00 | 35 | 1007.0 |
| 20260504215101 | 70 | 284 | 0.9 | 7.8 | 0.00 | 0.00 | 0.00 | 34 | 1007.1 |
| 20260504214600 | 70 | 0 | 0.9 | 7.8 | 0.00 | 0.00 | 0.00 | 34 | 1007.0 |
| 20260504214057 | 70 | 309 | 1.7 | 7.0 | 0.00 | 0.00 | 0.00 | 33 | 1007.0 |
| 20260504213557 | 70 | 295 | 1.7 | 7.0 | 0.00 | 0.00 | 0.00 | 32 | 1006.9 |
| 20260504213123 | 70 | 312 | 0.0 | 7.0 | 0.00 | 0.00 | 0.00 | 33 | 1006.8 |
| 20260504212602 | 70 | 304 | 1.7 | 4.3 | 0.00 | 0.00 | 0.00 | 32 | 1007.0 |
| 20260504212059 | 70 | 308 | 0.9 | 7.0 | 0.00 | 0.00 | 0.00 | 33 | 1007.0 |
| 20260504211557 | 70 | 0 | 0.9 | 7.0 | 0.00 | 0.00 | 0.00 | 32 | 1007.0 |
| 20260504211058 | 71 | 210 | 1.7 | 5.2 | 0.00 | 0.00 | 0.00 | 32 | 1006.9 |
| 20260504210558 | 71 | 279 | 0.0 | 5.2 | 0.00 | 0.00 | 0.00 | 32 | 1006.9 |
| 20260504205558 | 70 | 0 | 0.0 | 6.1 | 0.00 | 0.00 | 0.00 | 32 | 1006.9 |
| 20260504205059 | 70 | 304 | 0.0 | 8.7 | 0.00 | 0.00 | 0.00 | 32 | 1007.0 |
| 20260504204611 | 71 | 306 | 2.6 | 8.7 | 0.00 | 0.00 | 0.00 | 32 | 1007.0 |
| 20260504204057 | 71 | 302 | 2.6 | 7.0 | 0.00 | 0.00 | 0.00 | 31 | 1006.9 |
| 20260504203603 | 71 | 304 | 0.9 | 7.0 | 0.00 | 0.00 | 0.00 | 30 | 1007.0 |
| 20260504203056 | 71 | 0 | 1.7 | 7.0 | 0.00 | 0.00 | 0.00 | 31 | 1007.0 |
| 20260504202559 | 71 | 304 | 2.6 | 7.0 | 0.00 | 0.00 | 0.00 | 31 | 1006.9 |
| 20260504202100 | 71 | 300 | 0.9 | 10.4 | 0.00 | 0.00 | 0.00 | 32 | 1006.9 |
| 20260504201609 | 71 | 306 | 2.6 | 11.3 | 0.00 | 0.00 | 0.00 | 32 | 1006.8 |
| 20260504201057 | 71 | 302 | 5.2 | 11.3 | 0.00 | 0.00 | 0.00 | 31 | 1007.0 |
| 20260504200602 | 71 | 296 | 3.5 | 9.6 | 0.00 | 0.00 | 0.00 | 30 | 1007.0 |
| 20260504200108 | 71 | 0 | 0.9 | 9.6 | 0.00 | 0.00 | 0.00 | 31 | 1007.1 |
| 20260504195610 | 71 | 301 | 2.6 | 9.6 | 0.00 | 0.00 | 0.00 | 30 | 1007.1 |
| 20260504195058 | 71 | 0 | 0.9 | 7.8 | 0.00 | 0.00 | 0.00 | 32 | 1007.1 |
| 20260504194558 | 71 | 296 | 0.9 | 7.8 | 0.00 | 0.00 | 0.00 | 32 | 1007.0 |
| 20260504194101 | 71 | 274 | 0.9 | 7.8 | 0.00 | 0.00 | 0.00 | 31 | 1007.0 |
| 20260504193600 | 71 | 292 | 3.5 | 7.8 | 0.00 | 0.00 | 0.00 | 29 | 1007.3 |
| 20260504193102 | 71 | 296 | 1.7 | 7.0 | 0.00 | 0.00 | 0.00 | 30 | 1007.2 |
| 20260504192559 | 71 | 342 | 1.7 | 7.0 | 0.00 | 0.00 | 0.00 | 30 | 1007.1 |
| 20260504192104 | 71 | 0 | 1.7 | 13.0 | 0.00 | 0.00 | 0.00 | 30 | 1007.2 |
| 20260504191559 | 72 | 0 | 1.7 | 13.0 | 0.00 | 0.00 | 0.00 | 29 | 1007.2 |
| 20260504191102 | 72 | 305 | 2.6 | 8.7 | 0.00 | 0.00 | 0.00 | 29 | 1007.1 |
| 20260504190600 | 72 | 303 | 1.7 | 9.6 | 0.00 | 0.00 | 0.00 | 29 | 1007.2 |
| 20260504190100 | 72 | 281 | 1.7 | 9.6 | 0.00 | 0.00 | 0.00 | 29 | 1007.3 |
| 20260504185559 | 72 | 317 | 3.5 | 12.2 | 0.00 | 0.00 | 0.00 | 28 | 1007.3 |
| 20260504185100 | 71 | 5 | 2.6 | 12.2 | 0.00 | 0.00 | 0.00 | 28 | 1007.3 |
| 20260504184602 | 71 | 306 | 4.3 | 11.3 | 0.00 | 0.00 | 0.00 | 27 | 1007.5 |
| 20260504184059 | 72 | 306 | 5.2 | 11.3 | 0.00 | 0.00 | 0.00 | 27 | 1007.4 |
| 20260504183558 | 72 | 303 | 2.6 | 7.8 | 0.00 | 0.00 | 0.00 | 28 | 1007.6 |
| 20260504183105 | 72 | 272 | 1.7 | 7.0 | 0.00 | 0.00 | 0.00 | 29 | 1007.6 |
| 20260504182600 | 71 | 0 | 0.9 | 10.4 | 0.00 | 0.00 | 0.00 | 29 | 1007.4 |
| 20260504182058 | 72 | 289 | 1.7 | 10.4 | 0.00 | 0.00 | 0.00 | 27 | 1007.6 |
| 20260504181606 | 72 | 319 | 2.6 | 8.7 | 0.00 | 0.00 | 0.00 | 27 | 1007.6 |
| 20260504181058 | 72 | 304 | 2.6 | 8.7 | 0.00 | 0.00 | 0.00 | 27 | 1007.7 |
| 20260504180559 | 72 | 0 | 2.6 | 7.8 | 0.00 | 0.00 | 0.00 | 28 | 1007.7 |
| 20260504180100 | 71 | 296 | 0.0 | 9.6 | 0.00 | 0.00 | 0.00 | 30 | 1007.7 |
| 20260504175559 | 71 | 304 | 4.3 | 11.3 | 0.00 | 0.00 | 0.00 | 28 | 1007.9 |
| 20260504175059 | 71 | 300 | 3.5 | 11.3 | 0.00 | 0.00 | 0.00 | 28 | 1007.8 |
| 20260504174559 | 71 | 301 | 3.5 | 8.7 | 0.00 | 0.00 | 0.00 | 29 | 1008.1 |
| 20260504174100 | 70 | 297 | 1.7 | 9.6 | 0.00 | 0.00 | 0.00 | 29 | 1007.9 |
| 20260504173557 | 70 | 309 | 2.6 | 12.2 | 0.00 | 0.00 | 0.00 | 28 | 1008.0 |
| 20260504173100 | 70 | 307 | 1.7 | 12.2 | 0.00 | 0.00 | 0.00 | 30 | 1008.1 |
| 20260504172557 | 70 | 332 | 3.5 | 12.2 | 0.00 | 0.00 | 0.00 | 29 | 1008.2 |
| 20260504172101 | 70 | 267 | 3.5 | 10.4 | 0.00 | 0.00 | 0.00 | 31 | 1008.2 |
| 20260504171606 | 70 | 302 | 5.2 | 10.4 | 0.00 | 0.00 | 0.00 | 30 | 1008.0 |
| 20260504171100 | 70 | 360 | 2.6 | 12.2 | 0.00 | 0.00 | 0.00 | 31 | 1008.1 |
| 20260504170600 | 69 | 289 | 4.3 | 12.2 | 0.00 | 0.00 | 0.00 | 31 | 1008.3 |
| 20260504151059 | 64 | 298 | 4.3 | 13.0 | 0.00 | 0.00 | 0.00 | 36 | 1009.4 |
| 20260504150557 | 64 | 321 | 6.1 | 13.0 | 0.00 | 0.00 | 0.00 | 37 | 1009.5 |
| 20260504150104 | 65 | 306 | 4.3 | 11.3 | 0.00 | 0.00 | 0.00 | 35 | 1009.5 |
| 20260504141100 | 63 | 306 | 2.6 | 10.4 | 0.00 | 0.00 | 0.00 | 41 | 1009.6 |
| 20260504140559 | 62 | 315 | 0.9 | 5.2 | 0.00 | 0.00 | 0.00 | 42 | 1009.7 |
| 20260504130559 | 55 | 0 | 0.9 | 5.2 | 0.00 | 0.00 | 0.00 | 51 | 1010.5 |
| 20260504110558 | 42 | 0 | 0.0 | 0.9 | 0.00 | 0.00 | 0.00 | 71 | 1010.7 |
| 20260504110103 | 42 | 0 | 0.0 | 0.9 | 0.00 | 0.00 | 0.00 | 72 | 1010.6 |
| 20260504100559 | 41 | 0 | 0.0 | 0.9 | 0.00 | 0.00 | 0.00 | 72 | 1010.7 |
| 20260504100105 | 41 | 0 | 0.0 | 0.0 | 0.00 | 0.00 | 0.00 | 72 | 1010.7 |
| 20260504081600 | 43 | 0 | 0.0 | 0.0 | 0.00 | 0.00 | 0.00 | 70 | 1010.3 |
| 20260504081100 | 43 | 0 | 0.0 | 0.0 | 0.00 | 0.00 | 0.00 | 70 | 1010.3 |
| 20260504080557 | 43 | 0 | 0.0 | 0.0 | 0.00 | 0.00 | 0.00 | 69 | 1010.3 |
| 20260504080107 | 43 | 0 | 0.0 | 0.0 | 0.00 | 0.00 | 0.00 | 68 | 1010.3 |
| 20260504050600 | 41 | 0 | 0.0 | 0.0 | 0.00 | 0.00 | 0.00 | 72 | 1010.3 |
| 20260504050106 | 40 | 0 | 0.0 | 0.0 | 0.00 | 0.00 | 0.00 | 72 | 1010.4 |
| 20260504045557 | 40 | 0 | 0.0 | 0.0 | 0.00 | 0.00 | 0.00 | 72 | 1010.3 |
| 20260504045057 | 40 | 0 | 0.0 | 0.0 | 0.00 | 0.00 | 0.00 | 72 | 1010.3 |
| 20260504044601 | 40 | 0 | 0.0 | 0.0 | 0.00 | 0.00 | 0.00 | 72 | 1010.3 |
| 20260504044058 | 40 | 0 | 0.0 | 0.0 | 0.00 | 0.00 | 0.00 | 71 | 1010.4 |
| 20260504043558 | 40 | 0 | 0.0 | 0.0 | 0.00 | 0.00 | 0.00 | 71 | 1010.3 |
| 20260504043100 | 39 | 0 | 0.0 | 0.0 | 0.00 | 0.00 | 0.00 | 70 | 1010.4 |
| 20260504042601 | 39 | 0 | 0.0 | 0.0 | 0.00 | 0.00 | 0.00 | 69 | 1010.4 |
| 20260504042057 | 39 | 0 | 0.0 | 0.0 | 0.00 | 0.00 | 0.00 | 69 | 1010.4 |
| 20260504041558 | 39 | 0 | 0.0 | 0.9 | 0.00 | 0.00 | 0.00 | 69 | 1010.3 |
| 20260504041100 | 39 | 0 | 0.0 | 0.9 | 0.00 | 0.00 | 0.00 | 70 | 1010.4 |
| 20260504040557 | 39 | 0 | 0.0 | 0.9 | 0.00 | 0.00 | 0.00 | 70 | 1010.3 |
| 20260504040106 | 39 | 0 | 0.0 | 0.9 | 0.00 | 0.00 | 0.00 | 71 | 1010.2 |
| 20260504035558 | 39 | 0 | 0.0 | 1.7 | 0.00 | 0.00 | 0.00 | 71 | 1010.2 |
| 20260504035100 | 38 | 0 | 0.0 | 2.6 | 0.00 | 0.00 | 0.00 | 70 | 1010.1 |
| 20260504034559 | 38 | 0 | 0.0 | 2.6 | 0.00 | 0.00 | 0.00 | 71 | 1010.1 |
| 20260504034100 | 38 | 0 | 0.0 | 1.7 | 0.00 | 0.00 | 0.00 | 71 | 1010.0 |
| 20260504033558 | 38 | 0 | 0.0 | 0.9 | 0.00 | 0.00 | 0.00 | 72 | 1010.0 |
| 20260504033102 | 38 | 0 | 0.0 | 0.0 | 0.00 | 0.00 | 0.00 | 72 | 1010.0 |
| 20260504032600 | 38 | 0 | 0.0 | 0.0 | 0.00 | 0.00 | 0.00 | 72 | 1010.0 |
| 20260504032100 | 38 | 0 | 0.0 | 0.0 | 0.00 | 0.00 | 0.00 | 73 | 1010.0 |
| 20260504031602 | 38 | 0 | 0.0 | 0.0 | 0.00 | 0.00 | 0.00 | 73 | 1010.0 |
| 20260504031057 | 38 | 0 | 0.0 | 0.0 | 0.00 | 0.00 | 0.00 | 73 | 1009.9 |
| 20260504030600 | 38 | 0 | 0.0 | 0.0 | 0.00 | 0.00 | 0.00 | 72 | 1009.9 |
| 20260504030100 | 38 | 0 | 0.0 | 0.0 | 0.00 | 0.00 | 0.00 | 72 | 1009.8 |
| 20260504025600 | 38 | 0 | 0.0 | 0.0 | 0.00 | 0.00 | 0.00 | 72 | 1009.9 |
| 20260504025058 | 38 | 0 | 0.0 | 0.0 | 0.00 | 0.00 | 0.00 | 72 | 1009.8 |
| 20260504024601 | 38 | 0 | 0.0 | 0.0 | 0.00 | 0.00 | 0.00 | 72 | 1009.7 |
| 20260504024059 | 38 | 0 | 0.0 | 0.0 | 0.00 | 0.00 | 0.00 | 72 | 1009.8 |
| 20260504023558 | 38 | 0 | 0.0 | 0.0 | 0.00 | 0.00 | 0.00 | 72 | 1009.8 |
| 20260504023100 | 38 | 0 | 0.0 | 0.0 | 0.00 | 0.00 | 0.00 | 71 | 1009.7 |
| 20260504022558 | 38 | 0 | 0.0 | 0.0 | 0.00 | 0.00 | 0.00 | 71 | 1009.7 |
| 20260504022057 | 39 | 0 | 0.0 | 0.0 | 0.00 | 0.00 | 0.00 | 71 | 1009.6 |
| 20260504021600 | 39 | 0 | 0.0 | 0.0 | 0.00 | 0.00 | 0.00 | 71 | 1009.7 |
| 20260504021100 | 39 | 0 | 0.0 | 0.0 | 0.00 | 0.00 | 0.00 | 70 | 1009.6 |
| 20260504020557 | 39 | 0 | 0.0 | 0.0 | 0.00 | 0.00 | 0.00 | 69 | 1009.6 |
| 20260504020139 | 39 | 0 | 0.0 | 0.0 | 0.00 | 0.00 | 0.00 | 68 | 1009.6 |
| 20260504015558 | 40 | 0 | 0.0 | 0.0 | 0.00 | 0.00 | 0.00 | 68 | 1009.6 |
| 20260504015059 | 40 | 0 | 0.0 | 0.0 | 0.00 | 0.00 | 0.00 | 68 | 1009.5 |
| 20260504014605 | 40 | 0 | 0.0 | 0.0 | 0.00 | 0.00 | 0.00 | 68 | 1009.6 |
| 20260504014058 | 40 | 0 | 0.0 | 0.0 | 0.00 | 0.00 | 0.00 | 67 | 1009.6 |
| 20260504013558 | 40 | 0 | 0.0 | 0.0 | 0.00 | 0.00 | 0.00 | 66 | 1009.6 |
| 20260504013118 | 41 | 0 | 0.0 | 0.0 | 0.00 | 0.00 | 0.00 | 65 | 1009.4 |
| 20260504012559 | 41 | 0 | 0.0 | 0.0 | 0.00 | 0.00 | 0.00 | 65 | 1009.5 |
| 20260504012101 | 41 | 0 | 0.0 | 0.0 | 0.00 | 0.00 | 0.00 | 64 | 1009.4 |
| 20260504011600 | 42 | 0 | 0.0 | 0.0 | 0.00 | 0.00 | 0.00 | 63 | 1009.3 |
| 20260504011058 | 42 | 0 | 0.0 | 0.0 | 0.00 | 0.00 | 0.00 | 62 | 1009.3 |
| 20260504010557 | 43 | 0 | 0.0 | 0.0 | 0.00 | 0.00 | 0.00 | 62 | 1009.3 |
| 20260504010059 | 43 | 0 | 0.0 | 0.0 | 0.00 | 0.00 | 0.00 | 60 | 1009.2 |
| 20260504005559 | 44 | 0 | 0.0 | 0.0 | 0.00 | 0.00 | 0.00 | 57 | 1009.2 |
| 20260504005058 | 45 | 0 | 0.0 | 0.0 | 0.00 | 0.00 | 0.00 | 54 | 1009.1 |
| 20260504004635 | 46 | 0 | 0.0 | 0.0 | 0.00 | 0.00 | 0.00 | 54 | 1009.0 |
| 20260504004057 | 46 | 0 | 0.0 | 0.0 | 0.00 | 0.00 | 0.00 | 50 | 1009.0 |
| 20260504003559 | 46 | 0 | 0.0 | 0.0 | 0.00 | 0.00 | 0.00 | 49 | 1009.0 |
| 20260504003101 | 47 | 0 | 0.0 | 0.0 | 0.00 | 0.00 | 0.00 | 49 | 1008.9 |
| 20260504002558 | 47 | 0 | 0.0 | 0.9 | 0.00 | 0.00 | 0.00 | 48 | 1008.9 |
| 20260504002059 | 48 | 0 | 0.0 | 1.7 | 0.00 | 0.00 | 0.00 | 49 | 1008.8 |
| 20260504001623 | 49 | 0 | 0.0 | 3.5 | 0.00 | 0.00 | 0.00 | 49 | 1008.7 |
| 20260504001100 | 49 | 0 | 0.0 | 3.5 | 0.00 | 0.00 | 0.00 | 47 | 1008.7 |
| 20260504000559 | 49 | 300 | 0.9 | 4.3 | 0.00 | 0.00 | 0.00 | 43 | 1008.6 |
| 20260504000118 | 49 | 0 | 0.0 | 4.3 | 0.00 | 0.00 | 0.00 | 43 | 1008.5 |
| 20260503235601 | 49 | 300 | 1.7 | 4.3 | 0.00 | 0.00 | 0.00 | 42 | 1008.5 |
| 20260503235059 | 50 | 300 | 0.0 | 6.1 | 0.00 | 0.00 | 0.00 | 43 | 1008.5 |
| 20260503234605 | 50 | 0 | 0.9 | 7.0 | 0.00 | 0.00 | 0.00 | 42 | 1008.6 |
| 20260503234058 | 50 | 298 | 1.7 | 7.8 | 0.00 | 0.00 | 0.00 | 41 | 1008.5 |
| 20260503233558 | 50 | 306 | 2.6 | 7.8 | 0.00 | 0.00 | 0.00 | 41 | 1008.4 |
| 20260503233103 | 50 | 298 | 3.5 | 7.8 | 0.00 | 0.00 | 0.00 | 41 | 1008.4 |
| 20260503232557 | 50 | 0 | 2.6 | 6.1 | 0.00 | 0.00 | 0.00 | 41 | 1008.2 |
| 20260503232058 | 50 | 304 | 1.7 | 4.3 | 0.00 | 0.00 | 0.00 | 42 | 1008.3 |
| 20260503231559 | 50 | 290 | 1.7 | 6.1 | 0.00 | 0.00 | 0.00 | 40 | 1008.2 |
| 20260503231058 | 50 | 315 | 1.7 | 7.0 | 0.00 | 0.00 | 0.00 | 40 | 1008.2 |
| 20260503230559 | 50 | 310 | 2.6 | 7.0 | 0.00 | 0.00 | 0.00 | 40 | 1008.0 |
| 20260503230115 | 50 | 307 | 3.5 | 7.0 | 0.00 | 0.00 | 0.00 | 42 | 1008.1 |
| 20260503225558 | 50 | 301 | 1.7 | 4.3 | 0.00 | 0.00 | 0.00 | 41 | 1007.9 |
| 20260503225058 | 50 | 0 | 0.0 | 7.8 | 0.00 | 0.00 | 0.00 | 41 | 1007.9 |
| 20260503224606 | 51 | 311 | 3.5 | 7.8 | 0.00 | 0.00 | 0.00 | 40 | 1007.9 |
| 20260503224059 | 51 | 294 | 1.7 | 6.1 | 0.00 | 0.00 | 0.00 | 41 | 1007.9 |